STARLINK-37144, 68556

Orbit data source: Space-Track

STARLINK-37144, 68556 is a payload satellite owned by SpaceX/Seattle (US) in LEO that was launched on Thu, 02 Apr 2026 UTC via an FALCON 9 launch vehicle from the Air Force Eastern Test Range (AFETR). Payload-class satellites include a variety of spacecraft equipped with specific instruments for various scientific and technological missions. These include communications satellites like Starlink; space stations such as the ISS; scientific satellites like the Hubble; Earth observation satellites from companies like Planet Labs, Umbra, and HawkEye 360; GPS; miniature CubeSats for education and research; and military/defense satellites.

Loading next visibility...
Identifier
68556, 2026-070Q
Orbit
LEO
Country
Flag of USUS
Related business
Manufacturer
SpaceX/Seattle
Mission
Operational Commercial Communications
Bus & Motor
STARLINK V2MO, Unknown motor
Mass
575 kg wet, ~530 kg dry
Launch date (UTC)
2026-04-02 (5 months ago)
Launch vehicle
FALCON 9
Launch site
Air Force Eastern Test Range (AFETR)
Object type
Payload
Rocket body
Debris
Shape & HBR
Box + 1 Pan, 17.7 m
Radar Cross Section
41.120 m², Large (>1 m²)

Expand to show TLE details & history
Last TLE update: 1 day ago

TLE from 1 day ago
0 STARLINK-37144
1 68556U 26070Q   26246.40027316  .00012504  00000-0  38043-3 0  9991
2 68556  53.1588 253.5331 0001644  65.3062 294.8112 15.34412189 23810
Epoch: 2026-09-03T09:36Z
TLE epoch observation values (Epoch: 2026-09-03T09:36:23.601Z)
Latitude
0.00003°
Longitude
126.89579°
Altitude
463.096 km
Speed
7.636 km/s
True Right ascension
16h 54m 07s
True Declination
0° 00' 00"
Sunlit
Object was in daylight at epoch
Visualization orbit readout
Latitude
Unknown
Longitude
Unknown
Altitude
Unknown
Speed
Unknown
Apparent Right ascension
Unknown
Apparent Declination
Unknown
Sunlit
N/A
Visualization observer readout
Local Sidereal Time
01:49:45
Azimuth
Unknown
Elevation
Unknown
Doppler factor
Unknown
Orbital elements
Apogee altitude
464.049 km
Perigee altitude
461.799 km
Semi-major axis
6,841.061 km
Eccentricity
0.00016
Inclination
53.1588°
RAAN
253.5331°
Arg. of periapsis
65.3062°
True anomaly
294.7941°
Mean anomaly
294.8112°
Eccentric anomaly
294.80265°
Mean motion
3.83582 °/min
Orbital period
93.85 mins
BSTAR
0.00038043
Loading maneuver chart data...
Computing Atmospheric mass density...
Loading historical data...
Loading historical data...
Loading historical data...
Loading historical data...
Loading historical data...
Loading historical data...
Loading historical data...

Documentation

Showing up to 5 results
|